Home   Weather   Louisville   Past weeks
Flag for USA

Past Weather in Louisville, Kentucky, USA — Yesterday and Last 2 Weeks

Now
35 °F

Drizzle. Fog.


Feels Like: 27 °F
Forecast: 36 / 26 °F
Wind: 10 mph from Northwest

Location: Standiford Field

Current Time: Jan 23, 2019 at 9:34:26 pm

Latest Report: Jan 23, 2019 at 9:13 pm


Visibility: 3 mi

Pressure: 29.79 "Hg

Humidity: 88%

Dew Point: 32 °F

Location of LouisvilleLocation

Past Weather in Louisville — Graph

°F

Louisville Temperature Yesterday

Maximum temperature yesterday: 49 °F (at 11:56 pm)
Minimum temperature yesterday: 20 °F (at 7:56 am)
Average temperature yesterday: 35 °F

High & Low Weather Summary for the Past Weeks

 TemperatureHumidityPressure
High54 °F (Jan 23, 3:56 pm)93% (Jan 13, 1:56 am)30.62 "Hg (Jan 13, 1:56 am)
Low11 °F (Jan 21, 7:56 am)38% (Jan 22, 2:56 pm)29.42 "Hg (Jan 19, 4:56 pm)
Average35 °F73%30.18 "Hg
* Reported Jan 8 7:56 pm — Jan 23 7:56 pm, Louisville. Weather by CustomWeather, © 2019

Note: Actual official high and low records may vary slightly from our data, if they occured in-between our weather recording intervals... More about our weather records

Advertising

Louisville Weather History for the Previous 24 Hours

Scroll right to see more
 ConditionsComfort  
Time TempWeatherWind HumidityBarometerVisibility
7:56 pm
Wed, Jan 23
37 °FDrizzle. Fog.16 mph89%29.80 "Hg3 mi
6:56 pm40 °FLight rain. Overcast.12 mph86%29.77 "Hg10 mi
5:56 pm43 °FMostly cloudy.12 mph86%29.76 "Hg10 mi
5:31 pm44 °FCloudy.8 mph85%29.75 "Hg10 mi
5:08 pm45 °FRain. Fog.17 mph90%29.74 "Hg5 mi
5:00 pm47 °FRain. Fog.17 mph86%29.74 "Hg5 mi
3:56 pm54 °FLight rain. Overcast.10 mph83%29.69 "Hg10 mi
2:56 pm53 °FRain. Fog.14 mph86%29.72 "Hg5 mi
1:56 pm53 °FLight rain. More clouds than sun.14 mph86%29.75 "Hg10 mi
12:56 pm53 °FLight rain. Mostly cloudy.17 mph86%29.78 "Hg8 mi
12:20 pm53 °FRain. Fog.9 mph86%29.83 "Hg3 mi
11:56 am52 °FRain. Fog.12 mph89%29.83 "Hg2 mi
10:56 am52 °FRain. Fog.13 mph86%29.84 "Hg5 mi
10:03 am52 °FHeavy rain. Fog.14 mph86%29.86 "Hg3 mi
9:35 am52 °FRain. Overcast.14 mph83%29.85 "Hg2 mi
9:17 am53 °FRain. Mostly cloudy.15 mph80%29.85 "Hg4 mi
7:56 am52 °FLight rain. Overcast.15 mph77%29.85 "Hg9 mi
6:56 am51 °FRain. Overcast.18 mph77%29.85 "Hg9 mi
5:56 am51 °FLight rain. Mostly cloudy.20 mph74%29.87 "Hg10 mi
4:56 am50 °FLight rain. Mostly cloudy.14 mph74%29.90 "Hg10 mi
3:56 am50 °FLight rain. Mostly cloudy.18 mph68%29.95 "Hg10 mi
2:56 am49 °FLight rain. Overcast.17 mph71%29.98 "Hg8 mi
1:56 am50 °FLight rain. Overcast.17 mph63%30.00 "Hg10 mi
12:56 am50 °FOvercast.15 mph59%30.03 "Hg10 mi
11:56 pm
Tue, Jan 22
49 °FMostly cloudy.13 mph59%30.06 "Hg10 mi
10:56 pm48 °FMostly cloudy.17 mph59%30.06 "Hg10 mi
9:56 pm47 °FOvercast.16 mph56%30.11 "Hg10 mi
Weather by CustomWeather, © 2019

See weather overview